| time (UTC) | temp F | wind direction | speed knots | gust knots | rain 1hr in | rain 24hr in | rain mn in | humidity % | barometer mb |
| 20260510180024 | 54 | 275 | 2.6 | 0.0 | 0.00 | 0.00 | 0.00 | 57 | 1014.4 |
| 20260510174519 | 53 | 15 | 2.6 | 0.0 | 0.00 | 0.00 | 0.00 | 58 | 1014.4 |
| 20260510173015 | 53 | 325 | 2.6 | 0.0 | 0.00 | 0.00 | 0.00 | 57 | 1014.4 |
| 20260510171514 | 53 | 323 | 3.5 | 0.0 | 0.00 | 0.00 | 0.00 | 57 | 1014.3 |
| 20260510170010 | 53 | 302 | 3.5 | 0.0 | 0.00 | 0.00 | 0.00 | 57 | 1014.0 |
| 20260510164505 | 54 | 308 | 0.9 | 0.0 | 0.00 | 0.00 | 0.00 | 56 | 1014.0 |
| 20260510163002 | 54 | 298 | 2.6 | 0.0 | 0.00 | 0.00 | 0.00 | 53 | 1014.1 |
| 20260510161556 | 53 | 304 | 1.7 | 0.0 | 0.00 | 0.00 | 0.00 | 51 | 1013.9 |
| 20260510160053 | 50 | 276 | 0.0 | 0.0 | 0.00 | 0.00 | 0.00 | 49 | 1014.0 |
| 20260510154551 | 50 | 285 | 2.6 | 0.0 | 0.00 | 0.00 | 0.00 | 48 | 1014.2 |
| 20260510153043 | 50 | 336 | 2.6 | 0.0 | 0.00 | 0.00 | 0.00 | 48 | 1014.2 |
| 20260510151539 | 51 | 261 | 2.6 | 0.0 | 0.00 | 0.00 | 0.00 | 45 | 1013.9 |
| 20260510150042 | 52 | 355 | 2.6 | 0.0 | 0.00 | 0.00 | 0.00 | 42 | 1013.5 |
| 20260510144534 | 54 | 290 | 2.6 | 0.0 | 0.00 | 0.00 | 0.00 | 41 | 1013.2 |
| 20260510143026 | 55 | 255 | 1.7 | 0.0 | 0.00 | 0.00 | 0.00 | 43 | 1012.8 |
| 20260510141530 | 55 | 225 | 1.7 | 0.0 | 0.00 | 0.00 | 0.00 | 44 | 1012.7 |
| 20260510140021 | 55 | 290 | 3.5 | 0.0 | 0.00 | 0.00 | 0.00 | 44 | 1012.4 |
| 20260510134516 | 55 | 261 | 2.6 | 0.0 | 0.00 | 0.00 | 0.00 | 44 | 1012.4 |
| 20260510133013 | 55 | 224 | 2.6 | 0.0 | 0.00 | 0.00 | 0.00 | 44 | 1012.4 |
| 20260510131510 | 55 | 207 | 2.6 | 0.0 | 0.00 | 0.00 | 0.00 | 44 | 1012.5 |
| 20260510130003 | 55 | 236 | 3.5 | 0.0 | 0.00 | 0.00 | 0.00 | 44 | 1012.3 |
| 20260510124604 | 54 | 227 | 2.6 | 0.0 | 0.00 | 0.00 | 0.00 | 42 | 1012.2 |
| 20260510123102 | 54 | 194 | 1.7 | 0.0 | 0.00 | 0.00 | 0.00 | 41 | 1012.1 |
| 20260510121559 | 54 | 202 | 0.9 | 0.0 | 0.00 | 0.00 | 0.00 | 35 | 1012.1 |
| 20260510120055 | 54 | 205 | 3.5 | 0.0 | 0.00 | 0.00 | 0.00 | 21 | 1012.1 |
| 20260510114551 | 52 | 200 | 0.9 | 0.0 | 0.00 | 0.00 | 0.00 | 100 | 1011.8 |
| 20260510113046 | 50 | 202 | 0.9 | 0.0 | 0.00 | 0.00 | 0.00 | 100 | 1011.8 |
| 20260510111537 | 48 | 200 | 0.0 | 0.0 | 0.00 | 0.00 | 0.00 | 100 | 1011.6 |
| 20260510110033 | 47 | 200 | 0.0 | 0.0 | 0.00 | 0.00 | 0.00 | 100 | 1011.4 |
| 20260510104534 | 46 | 200 | 0.0 | 0.0 | 0.00 | 0.00 | 0.00 | 100 | 1011.4 |
| 20260510103025 | 46 | 200 | 0.0 | 0.0 | 0.00 | 0.00 | 0.00 | 100 | 1011.1 |
| 20260510101521 | 45 | 200 | 0.0 | 0.0 | 0.00 | 0.00 | 0.00 | 100 | 1011.3 |
| 20260510100017 | 45 | 200 | 0.0 | 0.0 | 0.00 | 0.00 | 0.00 | 100 | 1010.9 |
| 20260510094530 | 46 | 200 | 0.0 | 0.0 | 0.00 | 0.00 | 0.00 | 100 | 1010.8 |
| 20260510093008 | 46 | 200 | 0.0 | 0.0 | 0.00 | 0.00 | 0.00 | 100 | 1010.5 |
| 20260510091507 | 46 | 200 | 0.0 | 0.0 | 0.00 | 0.00 | 0.00 | 100 | 1010.1 |
| 20260510090003 | 47 | 200 | 0.0 | 0.0 | 0.00 | 0.00 | 0.00 | 2 | 1010.1 |
| 20260510084603 | 48 | 200 | 0.0 | 0.0 | 0.00 | 0.00 | 0.00 | 4 | 1010.0 |
| 20260510083055 | 48 | 200 | 0.0 | 0.0 | 0.00 | 0.00 | 0.00 | 4 | 1009.8 |
| 20260510081558 | 49 | 200 | 0.0 | 0.0 | 0.00 | 0.00 | 0.00 | 4 | 1009.8 |
| 20260510080048 | 49 | 200 | 0.0 | 0.0 | 0.00 | 0.00 | 0.00 | 3 | 1009.9 |
| 20260510074544 | 49 | 200 | 0.0 | 0.0 | 0.00 | 0.00 | 0.00 | 1 | 1010.0 |
| 20260510073040 | 49 | 200 | 0.0 | 0.0 | 0.00 | 0.00 | 0.00 | 100 | 1010.0 |
| 20260510071537 | 50 | 200 | 0.9 | 0.0 | 0.00 | 0.00 | 0.00 | 100 | 1010.1 |
| 20260510070036 | 50 | 199 | 0.9 | 0.0 | 0.00 | 0.00 | 0.00 | 100 | 1010.3 |
| 20260510064529 | 50 | 208 | 1.7 | 0.0 | 0.00 | 0.00 | 0.00 | 6 | 1011.0 |
| 20260510063024 | 50 | 229 | 1.7 | 0.0 | 0.00 | 0.00 | 0.00 | 7 | 1011.5 |
| 20260510061525 | 51 | 238 | 2.6 | 0.0 | 0.00 | 0.00 | 0.00 | 2 | 1011.5 |
| 20260510060015 | 51 | 235 | 5.2 | 0.0 | 0.00 | 0.00 | 0.00 | 100 | 1011.7 |
| 20260510054511 | 50 | 245 | 2.6 | 0.0 | 0.00 | 0.00 | 0.00 | 100 | 1011.4 |
| 20260510053007 | 49 | 209 | 3.5 | 0.0 | 0.00 | 0.00 | 0.00 | 100 | 1011.2 |
| 20260510051509 | 49 | 211 | 0.9 | 0.0 | 0.00 | 0.00 | 0.00 | 100 | 1010.9 |
| 20260510044555 | 48 | 210 | 2.6 | 0.0 | 0.00 | 0.00 | 0.00 | 100 | 1010.7 |
| 20260510043052 | 48 | 209 | 1.7 | 0.0 | 0.00 | 0.00 | 0.00 | 100 | 1010.4 |
| 20260510041605 | 48 | 210 | 1.7 | 0.0 | 0.00 | 0.00 | 0.00 | 100 | 1010.4 |
| 20260510040048 | 48 | 214 | 0.9 | 0.0 | 0.00 | 0.00 | 0.00 | 100 | 1010.7 |
| 20260510034544 | 47 | 214 | 0.9 | 0.0 | 0.00 | 0.00 | 0.37 | 100 | 1010.6 |
| 20260510033040 | 46 | 214 | 0.0 | 0.0 | 0.00 | 0.00 | 0.37 | 100 | 1010.4 |
| 20260510031547 | 46 | 214 | 0.0 | 0.0 | 0.00 | 0.00 | 0.37 | 100 | 1010.4 |
| 20260510030035 | 47 | 214 | 0.0 | 0.0 | 0.00 | 0.00 | 0.37 | 100 | 1010.5 |
| 20260510024524 | 47 | 214 | 0.0 | 0.0 | 0.00 | 0.00 | 0.37 | 8 | 1010.2 |
| 20260510023019 | 48 | 214 | 0.0 | 0.0 | 0.00 | 0.00 | 0.37 | 14 | 1010.3 |
| 20260510021525 | 49 | 214 | 0.0 | 0.0 | 0.00 | 0.00 | 0.37 | 17 | 1010.5 |
| 20260510020013 | 50 | 214 | 0.0 | 0.0 | 0.00 | 0.00 | 0.37 | 18 | 1010.4 |
| 20260510014510 | 50 | 214 | 0.0 | 0.0 | 0.00 | 0.00 | 0.37 | 20 | 1010.4 |
| 20260510013005 | 51 | 214 | 0.0 | 0.0 | 0.00 | 0.00 | 0.37 | 20 | 1010.0 |
| 20260510011505 | 51 | 214 | 0.9 | 0.0 | 0.00 | 0.00 | 0.37 | 17 | 1010.1 |
| 20260510010100 | 51 | 215 | 1.7 | 0.0 | 0.00 | 0.00 | 0.37 | 17 | 1010.3 |
| 20260510004603 | 51 | 236 | 0.9 | 0.0 | 0.00 | 0.00 | 0.37 | 19 | 1010.0 |
| 20260510003051 | 51 | 238 | 0.9 | 0.0 | 0.00 | 0.00 | 0.37 | 22 | 1009.9 |
| 20260510001548 | 51 | 238 | 0.9 | 0.0 | 0.00 | 0.00 | 0.37 | 26 | 1009.7 |
| 20260510000042 | 52 | 238 | 2.6 | 0.0 | 0.00 | 0.00 | 0.37 | 28 | 1009.8 |
| 20260509234538 | 52 | 207 | 3.5 | 0.0 | 0.00 | 0.00 | 0.37 | 32 | 1009.4 |
| 20260509233035 | 52 | 198 | 3.5 | 0.0 | 0.00 | 0.00 | 0.37 | 35 | 1009.4 |
| 20260509231530 | 52 | 221 | 3.5 | 0.0 | 0.00 | 0.00 | 0.37 | 37 | 1009.2 |
| 20260509230027 | 52 | 193 | 3.5 | 0.0 | 0.00 | 0.00 | 0.37 | 38 | 1009.0 |
| 20260509224522 | 53 | 204 | 4.3 | 0.0 | 0.00 | 0.00 | 0.37 | 37 | 1008.9 |
| 20260509223020 | 52 | 211 | 5.2 | 0.0 | 0.00 | 0.00 | 0.37 | 36 | 1009.1 |
| 20260509221516 | 52 | 192 | 4.3 | 0.0 | 0.00 | 0.00 | 0.37 | 35 | 1009.2 |
| 20260509220011 | 52 | 208 | 6.1 | 0.0 | 0.00 | 0.00 | 0.37 | 32 | 1009.2 |
| 20260509214506 | 52 | 215 | 6.1 | 0.0 | 0.00 | 0.00 | 0.37 | 28 | 1009.3 |
| 20260509213002 | 52 | 203 | 7.8 | 0.0 | 0.00 | 0.00 | 0.37 | 32 | 1009.6 |
| 20260509211602 | 53 | 224 | 3.5 | 0.0 | 0.00 | 0.00 | 0.37 | 32 | 1009.6 |
| 20260509210106 | 52 | 202 | 6.1 | 0.0 | 0.00 | 0.00 | 0.37 | 28 | 1009.7 |
| 20260509204551 | 51 | 224 | 7.0 | 0.0 | 0.00 | 0.00 | 0.37 | 21 | 1009.6 |
| 20260509203046 | 51 | 229 | 4.3 | 0.0 | 0.00 | 0.00 | 0.37 | 10 | 1009.9 |
| 20260509201546 | 51 | 188 | 4.3 | 0.0 | 0.00 | 0.00 | 0.37 | 6 | 1010.0 |
| 20260509200048 | 50 | 198 | 6.1 | 0.0 | 0.00 | 0.00 | 0.37 | 4 | 1010.1 |
| 20260509194537 | 50 | 223 | 5.2 | 0.0 | 0.00 | 0.00 | 0.37 | 100 | 1010.3 |
| 20260509193032 | 50 | 182 | 4.3 | 0.0 | 0.00 | 0.00 | 0.36 | 100 | 1010.3 |
| 20260509191528 | 50 | 206 | 3.5 | 0.0 | 0.00 | 0.00 | 0.36 | 100 | 1010.4 |
| 20260509190023 | 49 | 184 | 5.2 | 0.0 | 0.00 | 0.00 | 0.36 | 100 | 1010.6 |
| 20260509184532 | 49 | 188 | 1.7 | 0.0 | 0.00 | 0.00 | 0.36 | 100 | 1010.7 |
| 20260509183015 | 49 | 196 | 1.7 | 0.0 | 0.00 | 0.00 | 0.35 | 100 | 1010.7 |
| 20260509181514 | 49 | 192 | 2.6 | 0.0 | 0.00 | 0.00 | 0.35 | 100 | 1010.6 |